QPF
0.09 0.11 0.15 0.22 0.19 0.15 0.10 0.09 0.09 0.09 0.10 0.09 0.07 0.05 0.02 0.02 0.02 0.02 0.02 0.02 0.03 0.01 0.01 0.01 0.01 0.01 0.01 0.01 0.01 0.01 0.01 0.01 0.01 0.01 0.01 0.01 0.00 0.00 0.00 0.00 0.00 0.00 0.00 0.00
0.09 0.09 0.08 0.10 0.10 0.12 0.13 0.11 0.08 0.09 0.08 0.11 0.07 0.05 0.02 0.01 0.01 0.01 0.01 0.02 0.04 0.03 0.01 0.01 0.00 0.00 0.00 0.00 0.00 0.00 0.00 0.00 0.00 0.00 0.00 0.00 0.00 0.00 0.00 0.00 0.00 0.00 0.00 0.00
0.07 0.08 0.09 0.09 0.09 0.10 0.10 0.11 0.09 0.10 0.13 0.10 0.08 0.05 0.03 0.01 0.01 0.02 0.01 0.02 0.02 0.02 0.01 0.01 0.01 0.00 0.00 0.00 0.00 0.00 0.00 0.00 0.00 0.00 0.00 0.00 0.00 0.00 0.00 0.00 0.00 0.00 0.00 0.00
0.09 0.08 0.07 0.09 0.08 0.06 0.07 0.06 0.07 0.05 0.07 0.06 0.05 0.05 0.03 0.02 0.02 0.01 0.01 0.01 0.02 0.01 0.01 0.01 0.01 0.00 0.00 0.00 0.00 0.00 0.00 0.00 0.00 0.00 0.00 0.00 0.00 0.00 0.00 0.00 0.00 0.00 0.00 0.00
0.06 0.05 0.05 0.06 0.06 0.04 0.04 0.02 0.02 0.02 0.02 0.02 0.02 0.02 0.02 0.02 0.01 0.02 0.01 0.00 0.00 0.00 0.00 0.00 0.00 0.00 0.00 0.00 0.00 0.00 0.00 0.00 0.00 0.00 0.00 0.00 0.00 0.00 0.00 0.00 0.00 0.00 0.00 0.00
0.03 0.03 0.03 0.02 0.03 0.02 0.02 0.01 0.01 0.01 0.01 0.01 0.00 0.00 0.00 0.01 0.01 0.01 0.01 0.00 0.00 0.00 0.01 0.01 0.00 0.00 0.00 0.00 0.00 0.00 0.00 0.00 0.00 0.00 0.00 0.00 0.00 0.00 0.00 0.00 0.00 0.00 0.00 0.00
0.02 0.01 0.01 0.01 0.01 0.01 0.01 0.01 0.01 0.01 0.02 0.02 0.01 0.00 0.00 0.00 0.00 0.00 0.00 0.00 0.00 0.00 0.00 0.00 0.00 0.00 0.00 0.00 0.00 0.00 0.00 0.00 0.00 0.00 0.00 0.00 0.00 0.00 0.00 0.00 0.00 0.00 0.00 0.00
0.01 0.01 0.01 0.00 0.01 0.01 0.01 0.01 0.01 0.03 0.02 0.02 0.01 0.01 0.00 0.00 0.00 0.00 0.00 0.00 0.00 0.00 0.00 0.00 0.00 0.00 0.00 0.00 0.00 0.00 0.00 0.00 0.00 0.00 0.00 0.00 0.00 0.00 0.00 0.00 0.00 0.00 0.00 0.00
0.01 0.01 0.00 0.00 0.00 0.00 0.01 0.01 0.01 0.01 0.01 0.01 0.00 0.00 0.00 0.00 0.00 0.00 0.00 0.00 0.00 0.00 0.00 0.00 0.00 0.00 0.00 0.00 0.00 0.00 0.00 0.00 0.00 0.00 0.00 0.00 0.00 0.00 0.00 0.00 0.00 0.00 0.00 0.00
0.01 0.01 0.00 0.00 0.00 0.00 0.00 0.01 0.01 0.00 0.01 0.01 0.01 0.00 0.00 0.00 0.00 0.00 0.00 0.00 0.00 0.00 0.00 0.00 0.00 0.00 0.00 0.00 0.00 0.00 0.00 0.00 0.00 0.00 0.00 0.00 0.00 0.00 0.00 0.00 0.00 0.00 0.00 0.00
0.01 0.00 0.00 0.00 0.00 0.00 0.00 0.00 0.00 0.01 0.01 0.02 0.00 0.00 0.00 0.00 0.00 0.00 0.00 0.00 0.00 0.00 0.00 0.00 0.00 0.00 0.00 0.00 0.00 0.00 0.00 0.00 0.00 0.00 0.00 0.00 0.00 0.00 0.00 0.00 0.00 0.00 0.01 0.01
0.01 0.00 0.00 0.00 0.00 0.00 0.00 0.00 0.00 0.01 0.01 0.01 0.01 0.00 0.00 0.00 0.00 0.00 0.00 0.00 0.00 0.00 0.00 0.00 0.00 0.00 0.00 0.00 0.00 0.00 0.00 0.00 0.00 0.00 0.00 0.00 0.00 0.00 0.00 0.00 0.00 0.00 0.00 0.00
0.01 0.00 0.00 0.00 0.00 0.00 0.00 0.00 0.00 0.00 0.00 0.01 0.01 0.00 0.00 0.00 0.00 0.00 0.00 0.00 0.00 0.00 0.00 0.00 0.00 0.00 0.00 0.00 0.00 0.00 0.00 0.00 0.00 0.00 0.00 0.00 0.00 0.00 0.00 0.00 0.00 0.00 0.00 0.00
0.00 0.00 0.00 0.00 0.00 0.00 0.00 0.00 0.00 0.00 0.00 0.00 0.00 0.00 0.00 0.00 0.00 0.00 0.00 0.00 0.00 0.00 0.00 0.00 0.00 0.00 0.00 0.00 0.00 0.00 0.00 0.00 0.00 0.00 0.00 0.00 0.00 0.00 0.00 0.00 0.00 0.00 0.00 0.00
0.00 0.00 0.00 0.00 0.00 0.00 0.00 0.00 0.00 0.00 0.00 0.00 0.00 0.00 0.00 0.00 0.00 0.00 0.00 0.00 0.00 0.00 0.00 0.00 0.00 0.00 0.00 0.00 0.00 0.00 0.00 0.00 0.00 0.00 0.00 0.00 0.00 0.00 0.00 0.00 0.00 0.00 0.00 0.00
0.00 0.00 0.00 0.00 0.00 0.00 0.00 0.00 0.00 0.00 0.00 0.00 0.00 0.00 0.00 0.00 0.00 0.00 0.00 0.00 0.00 0.00 0.00 0.00 0.00 0.00 0.00 0.00 0.00 0.00 0.00 0.00 0.00 0.00 0.00 0.00 0.00 0.00 0.00 0.00 0.00 0.00 0.00 0.00
0.00 0.00 0.00 0.00 0.00 0.00 0.00 0.00 0.00 0.00 0.00 0.00 0.00 0.00 0.00 0.00 0.00 0.00 0.00 0.00 0.00 0.00 0.00 0.00 0.00 0.00 0.00 0.00 0.00 0.00 0.00 0.00 0.00 0.00 0.00 0.00 0.00 0.00 0.00 0.00 0.00 0.00 0.00 0.00
0.00 0.00 0.00 0.00 0.00 0.00 0.00 0.00 0.00 0.00 0.00 0.00 0.00 0.00 0.00 0.00 0.00 0.00 0.00 0.00 0.00 0.00 0.00 0.00 0.00 0.00 0.00 0.00 0.00 0.00 0.00 0.00 0.00 0.00 0.00 0.00 0.00 0.00 0.00 0.00 0.00 0.00 0.00 0.00
0.00 0.00 0.00 0.00 0.00 0.00 0.00 0.00 0.00 0.00 0.00 0.00 0.00 0.00 0.00 0.00 0.00 0.00 0.00 0.00 0.00 0.00 0.00 0.00 0.00 0.00 0.00 0.00 0.00 0.00 0.00 0.00 0.00 0.00 0.00 0.00 0.00 0.00 0.00 0.00 0.00 0.00 0.00 0.00
0.00 0.00 0.00 0.00 0.00 0.00 0.00 0.00 0.00 0.00 0.00 0.00 0.00 0.00 0.00 0.00 0.00 0.00 0.00 0.00 0.00 0.00 0.00 0.00 0.00 0.00 0.00 0.00 0.00 0.00 0.00 0.00 0.00 0.00 0.00 0.00 0.00 0.00 0.00 0.00 0.00 0.00 0.00 0.00
0.00 0.00 0.00 0.00 0.00 0.00 0.00 0.00 0.00 0.00 0.00 0.00 0.00 0.00 0.00 0.00 0.00 0.00 0.00 0.00 0.00 0.00 0.00 0.00 0.00 0.00 0.00 0.00 0.00 0.00 0.00 0.00 0.00 0.00 0.00 0.00 0.00 0.00 0.00 0.00 0.00 0.00 0.00 0.00
0.00 0.00 0.00 0.00 0.00 0.00 0.00 0.00 0.00 0.00 0.00 0.00 0.00 0.00 0.00 0.00 0.00 0.00 0.00 0.00 0.00 0.00 0.00 0.00 0.00 0.00 0.00 0.00 0.00 0.00 0.00 0.00 0.00 0.00 0.00 0.00 0.00 0.00 0.00 0.00 0.00 0.00 0.00 0.00
0.00 0.00 0.00 0.00 0.00 0.00 0.00 0.00 0.00 0.00 0.00 0.00 0.00 0.00 0.00 0.00 0.00 0.00 0.00 0.00 0.00 0.00 0.00 0.00 0.00 0.00 0.00 0.00 0.00 0.00 0.00 0.00 0.00 0.00 0.00 0.00 0.00 0.00 0.00 0.00 0.00 0.00 0.00 0.00
0.00 0.00 0.00 0.00 0.00 0.00 0.00 0.00 0.00 0.00 0.00 0.00 0.00 0.00 0.00 0.00 0.00 0.00 0.00 0.00 0.00 0.00 0.00 0.00 0.00 0.00 0.00 0.00 0.00 0.00 0.00 0.00 0.00 0.00 0.00 0.00 0.00 0.00 0.00 0.00 0.00 0.00 0.00 0.00
0.00 0.00 0.00 0.00 0.00 0.00 0.00 0.00 0.00 0.00 0.00 0.00 0.00 0.00 0.00 0.00 0.00 0.00 0.00 0.00 0.00 0.00 0.00 0.00 0.00 0.00 0.00 0.00 0.00 0.00 0.00 0.00 0.00 0.00 0.00 0.00 0.00 0.00 0.00 0.00 0.00 0.00 0.00 0.00
0.00 0.00 0.00 0.00 0.00 0.00 0.00 0.00 0.00 0.00 0.00 0.00 0.00 0.00 0.00 0.00 0.00 0.00 0.00 0.00 0.00 0.00 0.00 0.00 0.00 0.00 0.00 0.00 0.00 0.00 0.00 0.00 0.00 0.00 0.00 0.00 0.00 0.00 0.00 0.00 0.00 0.00 0.00 0.00
MSLP
1013.11 1014.19 1014.95 1015.35 1015.46 1015.34 1015.09 1014.79 1014.49 1014.22 1013.97 1013.70 1013.40 1013.04 1012.63 1012.19 1011.78 1011.43 1011.19 1011.08 1011.09 1011.20 1011.36 1011.53 1011.66 1011.74 1011.78 1011.79 1011.82 1011.91 1012.06 1012.30 1012.59 1012.89 1013.16 1013.34 1013.40 1013.32 1013.11 1012.81 1012.47 1012.12 1011.81 1011.58
1013.85 1014.79 1015.37 1015.62 1015.59 1015.38 1015.10 1014.81 1014.56 1014.36 1014.16 1013.94 1013.64 1013.25 1012.78 1012.26 1011.75 1011.33 1011.04 1010.92 1010.95 1011.10 1011.32 1011.54 1011.71 1011.81 1011.83 1011.82 1011.80 1011.85 1011.98 1012.21 1012.52 1012.88 1013.20 1013.45 1013.57 1013.53 1013.34 1013.04 1012.68 1012.30 1011.97 1011.72
1014.20 1014.93 1015.32 1015.42 1015.29 1015.05 1014.80 1014.60 1014.46 1014.38 1014.30 1014.15 1013.87 1013.46 1012.92 1012.30 1011.70 1011.19 1010.84 1010.69 1010.73 1010.92 1011.20 1011.49 1011.72 1011.85 1011.89 1011.86 1011.82 1011.83 1011.93 1012.15 1012.47 1012.85 1013.22 1013.52 1013.69 1013.70 1013.55 1013.27 1012.91 1012.54 1012.20 1011.94
1014.15 1014.64 1014.84 1014.81 1014.64 1014.44 1014.30 1014.26 1014.32 1014.43 1014.50 1014.44 1014.21 1013.77 1013.15 1012.41 1011.68 1011.05 1010.61 1010.41 1010.44 1010.66 1011.00 1011.35 1011.65 1011.84 1011.91 1011.90 1011.85 1011.84 1011.92 1012.11 1012.42 1012.80 1013.19 1013.53 1013.75 1013.81 1013.70 1013.46 1013.14 1012.79 1012.46 1012.21
1013.76 1014.03 1014.06 1013.95 1013.81 1013.72 1013.77 1013.97 1014.28 1014.61 1014.86 1014.92 1014.72 1014.25 1013.53 1012.66 1011.77 1010.99 1010.42 1010.12 1010.11 1010.33 1010.70 1011.12 1011.49 1011.75 1011.88 1011.91 1011.87 1011.85 1011.91 1012.07 1012.36 1012.72 1013.11 1013.47 1013.72 1013.82 1013.77 1013.59 1013.31 1013.00 1012.70 1012.47
1013.19 1013.25 1013.17 1013.04 1012.98 1013.06 1013.35 1013.82 1014.40 1014.98 1015.42 1015.60 1015.43 1014.91 1014.09 1013.06 1011.99 1011.02 1010.29 1009.87 1009.77 1009.96 1010.34 1010.80 1011.24 1011.57 1011.77 1011.85 1011.84 1011.83 1011.87 1012.01 1012.26 1012.60 1012.97 1013.33 1013.60 1013.74 1013.74 1013.61 1013.39 1013.13 1012.88 1012.67
1012.60 1012.51 1012.36 1012.26 1012.32 1012.60 1013.14 1013.88 1014.73 1015.54 1016.14 1016.41 1016.26 1015.68 1014.74 1013.55 1012.29 1011.14 1010.23 1009.66 1009.45 1009.57 1009.93 1010.42 1010.90 1011.30 1011.56 1011.70 1011.74 1011.75 1011.79 1011.90 1012.12 1012.42 1012.77 1013.11 1013.39 1013.55 1013.60 1013.52 1013.36 1013.16 1012.96 1012.78
1012.14 1011.95 1011.78 1011.74 1011.93 1012.40 1013.16 1014.13 1015.19 1016.16 1016.88 1017.21 1017.06 1016.42 1015.37 1014.04 1012.62 1011.29 1010.22 1009.51 1009.18 1009.22 1009.54 1010.01 1010.51 1010.95 1011.27 1011.46 1011.55 1011.58 1011.63 1011.73 1011.92 1012.19 1012.51 1012.83 1013.10 1013.29 1013.36 1013.34 1013.23 1013.08 1012.93 1012.79
1011.90 1011.67 1011.52 1011.55 1011.85 1012.46 1013.37 1014.48 1015.66 1016.72 1017.48 1017.82 1017.65 1016.96 1015.83 1014.41 1012.88 1011.44 1010.24 1009.41 1008.98 1008.93 1009.18 1009.61 1010.11 1010.56 1010.91 1011.14 1011.27 1011.33 1011.39 1011.50 1011.67 1011.92 1012.21 1012.51 1012.78 1012.97 1013.08 1013.09 1013.03 1012.93 1012.81 1012.72
1011.92 1011.70 1011.58 1011.67 1012.04 1012.71 1013.67 1014.81 1016.00 1017.04 1017.78 1018.09 1017.88 1017.16 1016.01 1014.56 1013.00 1011.52 1010.28 1009.38 1008.88 1008.75 1008.92 1009.29 1009.74 1010.17 1010.52 1010.77 1010.92 1011.01 1011.09 1011.20 1011.37 1011.61 1011.89 1012.18 1012.44 1012.65 1012.77 1012.81 1012.79 1012.73 1012.65 1012.59
1012.17 1011.99 1011.91 1012.03 1012.40 1013.05 1013.95 1015.01 1016.08 1017.02 1017.67 1017.90 1017.66 1016.95 1015.83 1014.44 1012.95 1011.53 1010.33 1009.44 1008.90 1008.72 1008.81 1009.10 1009.47 1009.84 1010.15 1010.37 1010.52 1010.62 1010.72 1010.84 1011.03 1011.27 1011.55 1011.84 1012.11 1012.33 1012.47 1012.54 1012.56 1012.53 1012.48 1012.45
1012.56 1012.44 1012.40 1012.51 1012.84 1013.39 1014.14 1015.01 1015.90 1016.65 1017.15 1017.30 1017.03 1016.36 1015.34 1014.10 1012.76 1011.49 1010.40 1009.58 1009.07 1008.85 1008.87 1009.06 1009.32 1009.59 1009.82 1009.99 1010.11 1010.20 1010.30 1010.44 1010.64 1010.89 1011.19 1011.49 1011.78 1012.02 1012.19 1012.30 1012.34 1012.35 1012.33 1012.32
1013.02 1012.97 1012.96 1013.04 1013.27 1013.67 1014.21 1014.85 1015.48 1016.01 1016.33 1016.38 1016.10 1015.51 1014.64 1013.61 1012.50 1011.45 1010.54 1009.84 1009.38 1009.15 1009.10 1009.17 1009.31 1009.45 1009.56 1009.64 1009.70 1009.76 1009.85 1009.99 1010.20 1010.48 1010.79 1011.12 1011.44 1011.71 1011.91 1012.06 1012.14 1012.18 1012.20 1012.22
1013.48 1013.49 1013.50 1013.55 1013.68 1013.90 1014.21 1014.58 1014.94 1015.23 1015.38 1015.33 1015.05 1014.56 1013.89 1013.09 1012.26 1011.46 1010.77 1010.22 1009.83 1009.59 1009.47 1009.42 1009.40 1009.39 1009.37 1009.33 1009.31 1009.31 1009.37 1009.50 1009.72 1010.00 1010.34 1010.70 1011.04 1011.35 1011.60 1011.79 1011.92 1012.01 1012.07 1012.12
1013.90 1013.98 1014.01 1014.02 1014.04 1014.10 1014.19 1014.31 1014.42 1014.48 1014.47 1014.34 1014.08 1013.71 1013.22 1012.67 1012.11 1011.56 1011.08 1010.68 1010.36 1010.12 1009.92 1009.75 1009.58 1009.40 1009.23 1009.06 1008.92 1008.85 1008.87 1008.97 1009.18 1009.47 1009.81 1010.19 1010.57 1010.91 1011.21 1011.46 1011.65 1011.80 1011.91 1012.00
1014.30 1014.42 1014.47 1014.45 1014.39 1014.31 1014.22 1014.13 1014.03 1013.91 1013.76 1013.57 1013.34 1013.06 1012.75 1012.42 1012.09 1011.77 1011.47 1011.19 1010.93 1010.67 1010.39 1010.09 1009.78 1009.44 1009.11 1008.81 1008.56 1008.40 1008.36 1008.42 1008.59 1008.87 1009.21 1009.59 1009.99 1010.37 1010.72 1011.02 1011.28 1011.49 1011.67 1011.82
1014.68 1014.83 1014.89 1014.85 1014.74 1014.56 1014.34 1014.10 1013.84 1013.59 1013.35 1013.12 1012.90 1012.71 1012.53 1012.36 1012.20 1012.05 1011.88 1011.68 1011.45 1011.16 1010.81 1010.40 1009.95 1009.47 1009.01 1008.59 1008.24 1007.99 1007.87 1007.87 1008.00 1008.22 1008.54 1008.90 1009.30 1009.70 1010.09 1010.45 1010.77 1011.06 1011.31 1011.52
1015.07 1015.22 1015.28 1015.23 1015.08 1014.85 1014.56 1014.23 1013.88 1013.55 1013.24 1012.98 1012.78 1012.63 1012.53 1012.47 1012.42 1012.36 1012.26 1012.10 1011.86 1011.54 1011.12 1010.62 1010.06 1009.49 1008.92 1008.40 1007.97 1007.64 1007.44 1007.37 1007.43 1007.59 1007.84 1008.16 1008.53 1008.92 1009.33 1009.73 1010.12 1010.48 1010.81 1011.09
1015.47 1015.59 1015.63 1015.56 1015.40 1015.15 1014.83 1014.46 1014.07 1013.70 1013.37 1013.09 1012.89 1012.76 1012.70 1012.67 1012.66 1012.63 1012.55 1012.40 1012.14 1011.77 1011.30 1010.75 1010.13 1009.49 1008.87 1008.29 1007.80 1007.41 1007.13 1006.98 1006.94 1007.01 1007.17 1007.41 1007.72 1008.07 1008.47 1008.89 1009.32 1009.75 1010.15 1010.51
1015.87 1015.92 1015.91 1015.82 1015.64 1015.39 1015.08 1014.71 1014.33 1013.96 1013.62 1013.35 1013.15 1013.01 1012.94 1012.92 1012.89 1012.85 1012.75 1012.56 1012.28 1011.89 1011.39 1010.81 1010.18 1009.52 1008.88 1008.29 1007.76 1007.32 1006.97 1006.73 1006.59 1006.54 1006.58 1006.70 1006.91 1007.19 1007.54 1007.95 1008.40 1008.87 1009.34 1009.77
1016.21 1016.16 1016.08 1015.95 1015.76 1015.52 1015.23 1014.90 1014.55 1014.21 1013.90 1013.64 1013.44 1013.29 1013.20 1013.14 1013.08 1013.00 1012.85 1012.64 1012.32 1011.92 1011.42 1010.86 1010.24 1009.61 1008.99 1008.40 1007.86 1007.39 1006.98 1006.64 1006.38 1006.20 1006.09 1006.07 1006.14 1006.31 1006.58 1006.94 1007.38 1007.86 1008.37 1008.87
1016.44 1016.28 1016.11 1015.92 1015.72 1015.49 1015.24 1014.96 1014.68 1014.39 1014.13 1013.90 1013.70 1013.55 1013.43 1013.33 1013.22 1013.08 1012.90 1012.65 1012.33 1011.92 1011.45 1010.92 1010.36 1009.78 1009.20 1008.64 1008.11 1007.60 1007.14 1006.71 1006.32 1005.98 1005.71 1005.52 1005.44 1005.46 1005.61 1005.89 1006.27 1006.74 1007.27 1007.81
1016.52 1016.23 1015.97 1015.73 1015.52 1015.31 1015.10 1014.90 1014.68 1014.48 1014.28 1014.08 1013.91 1013.76 1013.62 1013.48 1013.33 1013.15 1012.93 1012.66 1012.33 1011.95 1011.51 1011.03 1010.53 1010.01 1009.49 1008.97 1008.44 1007.92 1007.39 1006.87 1006.36 1005.87 1005.43 1005.06 1004.79 1004.65 1004.65 1004.81 1005.11 1005.54 1006.05 1006.61
1016.41 1016.01 1015.67 1015.39 1015.17 1015.00 1014.85 1014.72 1014.60 1014.47 1014.35 1014.21 1014.08 1013.93 1013.79 1013.62 1013.44 1013.23 1012.99 1012.70 1012.38 1012.01 1011.62 1011.19 1010.75 1010.28 1009.81 1009.32 1008.80 1008.25 1007.67 1007.06 1006.43 1005.79 1005.19 1004.64 1004.19 1003.88 1003.72 1003.74 1003.93 1004.27 1004.74 1005.29
1016.10 1015.63 1015.24 1014.95 1014.74 1014.61 1014.54 1014.49 1014.46 1014.43 1014.38 1014.30 1014.21 1014.09 1013.94 1013.77 1013.57 1013.34 1013.07 1012.78 1012.46 1012.11 1011.74 1011.35 1010.95 1010.53 1010.08 1009.60 1009.08 1008.51 1007.88 1007.19 1006.46 1005.70 1004.95 1004.24 1003.63 1003.14 1002.83 1002.69 1002.75 1003.00 1003.39 1003.92
1015.63 1015.12 1014.73 1014.45 1014.29 1014.23 1014.23 1014.27 1014.33 1014.38 1014.40 1014.39 1014.33 1014.23 1014.09 1013.91 1013.70 1013.45 1013.17 1012.87 1012.54 1012.20 1011.84 1011.46 1011.07 1010.66 1010.22 1009.74 1009.21 1008.61 1007.94 1007.19 1006.39 1005.53 1004.68 1003.85 1003.09 1002.46 1001.99 1001.72 1001.64 1001.76 1002.07 1002.53
Thickness
5707 5697 5691 5698 5706 5709 5709 5708 5709 5721 5738 5736 5733 5737 5746 5755 5754 5753 5752 5752 5753 5756 5759 5759 5759 5757 5754 5751 5748 5744 5740 5736 5733 5727 5722 5718 5714 5712 5710 5707 5704 5702 5699 5696
5695 5693 5706 5712 5712 5710 5710 5707 5709 5721 5736 5735 5731 5735 5747 5753 5754 5755 5754 5754 5754 5753 5753 5754 5755 5754 5751 5748 5746 5742 5739 5735 5732 5728 5723 5719 5714 5711 5708 5705 5703 5700 5698 5695
5693 5702 5714 5712 5709 5707 5709 5708 5713 5717 5728 5734 5729 5725 5739 5751 5756 5758 5758 5758 5758 5756 5754 5752 5751 5750 5749 5746 5744 5742 5738 5735 5731 5728 5723 5718 5713 5708 5705 5702 5700 5698 5696 5694
5701 5713 5716 5712 5712 5713 5705 5724 5726 5723 5714 5708 5720 5703 5727 5740 5746 5751 5754 5755 5756 5758 5756 5753 5751 5748 5748 5747 5745 5741 5737 5734 5730 5727 5722 5715 5709 5704 5702 5700 5698 5697 5695 5692
5704 5714 5714 5713 5721 5724 5720 5733 5728 5724 5714 5706 5713 5704 5715 5735 5737 5746 5752 5755 5757 5758 5756 5753 5752 5750 5749 5747 5744 5740 5736 5733 5729 5726 5721 5715 5709 5705 5702 5700 5697 5695 5693 5691
5716 5728 5728 5728 5736 5737 5734 5727 5720 5711 5702 5692 5709 5704 5710 5726 5739 5747 5753 5755 5755 5756 5755 5753 5752 5749 5747 5745 5742 5739 5735 5731 5728 5724 5720 5715 5710 5706 5702 5698 5695 5693 5691 5689
5711 5723 5734 5739 5729 5733 5727 5706 5689 5686 5680 5688 5713 5709 5715 5741 5752 5755 5755 5754 5755 5755 5753 5750 5747 5745 5744 5742 5740 5737 5734 5729 5727 5723 5719 5715 5711 5707 5702 5699 5695 5692 5689 5688
5700 5702 5728 5737 5733 5725 5722 5710 5690 5681 5680 5689 5708 5708 5725 5751 5758 5761 5760 5757 5755 5753 5752 5751 5749 5747 5745 5743 5740 5736 5732 5729 5726 5722 5719 5716 5712 5707 5703 5700 5697 5693 5690 5688
5703 5707 5737 5745 5748 5740 5723 5714 5715 5697 5695 5687 5697 5715 5735 5751 5751 5753 5754 5753 5751 5752 5752 5751 5750 5748 5745 5743 5740 5737 5733 5729 5726 5723 5719 5715 5712 5708 5704 5701 5698 5695 5693 5690
5724 5715 5733 5746 5749 5746 5738 5727 5706 5696 5684 5677 5691 5703 5710 5733 5740 5747 5749 5749 5751 5752 5752 5751 5750 5748 5747 5745 5742 5738 5735 5731 5727 5723 5719 5716 5712 5708 5705 5702 5698 5696 5694 5691
5732 5716 5722 5733 5731 5729 5732 5727 5711 5694 5691 5679 5679 5697 5734 5739 5745 5747 5749 5752 5752 5752 5752 5751 5750 5749 5747 5744 5741 5737 5734 5730 5726 5723 5719 5716 5712 5708 5705 5701 5699 5696 5694 5691
5732 5713 5706 5721 5739 5747 5740 5732 5716 5698 5695 5689 5682 5698 5747 5748 5751 5752 5752 5754 5755 5754 5753 5751 5750 5747 5744 5742 5740 5737 5734 5730 5727 5724 5720 5716 5712 5708 5704 5701 5699 5697 5694 5692
5732 5712 5696 5700 5715 5733 5736 5737 5727 5710 5696 5687 5683 5703 5745 5747 5749 5751 5751 5752 5752 5751 5750 5748 5745 5744 5743 5741 5739 5736 5734 5731 5728 5724 5719 5715 5711 5707 5704 5702 5699 5697 5694 5692
5737 5713 5701 5696 5703 5719 5725 5732 5732 5715 5695 5694 5700 5711 5732 5739 5743 5746 5748 5749 5749 5748 5747 5744 5742 5741 5741 5741 5739 5736 5733 5731 5728 5723 5719 5715 5711 5708 5705 5702 5700 5697 5694 5691
5730 5713 5717 5718 5725 5727 5728 5728 5729 5721 5713 5703 5712 5717 5728 5736 5741 5744 5747 5747 5746 5744 5743 5743 5741 5740 5739 5738 5737 5736 5733 5730 5727 5722 5718 5715 5712 5709 5705 5702 5699 5696 5694 5691
5722 5715 5714 5714 5725 5725 5724 5728 5728 5726 5724 5718 5718 5719 5735 5738 5740 5740 5742 5742 5741 5741 5743 5743 5742 5740 5739 5738 5736 5734 5732 5730 5726 5722 5719 5716 5711 5708 5704 5701 5698 5695 5692 5690
5712 5709 5702 5697 5709 5715 5707 5722 5724 5723 5725 5723 5713 5719 5731 5733 5734 5734 5736 5738 5738 5740 5741 5741 5741 5740 5740 5739 5737 5734 5733 5730 5725 5721 5718 5715 5711 5707 5704 5701 5697 5694 5691 5688
5711 5703 5691 5690 5698 5691 5709 5731 5731 5724 5721 5724 5723 5725 5729 5730 5733 5736 5736 5735 5735 5738 5738 5739 5740 5740 5740 5739 5737 5735 5731 5727 5723 5720 5717 5714 5710 5706 5703 5699 5695 5692 5690 5686
5717 5704 5689 5681 5682 5690 5711 5726 5726 5718 5709 5719 5719 5721 5725 5729 5728 5727 5733 5734 5734 5736 5737 5738 5739 5738 5737 5736 5735 5731 5727 5724 5720 5718 5715 5713 5709 5705 5700 5697 5694 5691 5688 5685
5712 5704 5689 5679 5680 5678 5698 5723 5730 5719 5697 5713 5715 5714 5717 5717 5702 5708 5725 5729 5731 5733 5733 5734 5734 5733 5731 5731 5730 5726 5722 5719 5718 5717 5715 5713 5709 5704 5700 5697 5693 5690 5687 5684
5696 5689 5681 5675 5673 5680 5703 5718 5719 5690 5688 5707 5709 5709 5709 5704 5701 5710 5719 5722 5724 5726 5727 5727 5726 5724 5724 5725 5723 5719 5717 5716 5718 5716 5713 5710 5707 5703 5700 5696 5692 5688 5685 5681
5686 5679 5674 5667 5665 5673 5703 5706 5694 5691 5700 5702 5703 5704 5703 5703 5706 5708 5711 5713 5714 5715 5717 5717 5716 5715 5717 5716 5714 5712 5712 5714 5713 5710 5707 5705 5703 5701 5698 5692 5688 5685 5681 5677
5681 5682 5676 5674 5675 5689 5697 5697 5698 5697 5694 5695 5695 5697 5698 5697 5696 5698 5700 5701 5703 5704 5706 5707 5706 5706 5707 5707 5706 5704 5707 5707 5705 5703 5701 5700 5698 5695 5693 5689 5684 5680 5677 5673
5677 5682 5676 5673 5678 5684 5687 5689 5691 5690 5688 5689 5689 5689 5689 5687 5687 5688 5688 5689 5691 5693 5694 5695 5695 5695 5696 5698 5699 5699 5700 5699 5698 5696 5694 5693 5690 5687 5685 5683 5680 5676 5673 5669
5668 5670 5664 5663 5669 5672 5675 5676 5678 5679 5680 5679 5679 5679 5677 5677 5676 5677 5676 5677 5678 5680 5682 5683 5684 5684 5687 5688 5689 5690 5691 5689 5688 5687 5686 5685 5684 5681 5678 5676 5674 5672 5671 5669
5660 5659 5655 5655 5662 5657 5660 5666 5668 5667 5667 5667 5666 5665 5666 5665 5664 5664 5663 5664 5665 5667 5669 5670 5672 5674 5676 5678 5680 5681 5681 5680 5679 5677 5677 5676 5674 5672 5670 5667 5663 5663 5663 5663